Time,TemperatureF,DewpointF,PressureIn,WindDirection,WindDirectionDegrees,WindSpeedMPH,WindSpeedGustMPH,Humidity,HourlyPrecipIn,Conditions,Clouds,dailyrainin,SoftwareType,DateUTC
2013-01-20 00:01:00,66.7,59.3,30.09,NNE,22,5.4,5.4,77,0.00,,---,0.00,VWS V14.00,2013-01-20 05:01:00,
2013-01-20 00:02:00,66.7,59.3,30.09,NNW,338,5.4,5.4,77,0.00,,---,0.00,VWS V14.00,2013-01-20 05:02:00,
2013-01-20 00:03:00,66.7,59.3,30.09,NE,45,3.6,4.9,77,0.00,,---,0.00,VWS V14.00,2013-01-20 05:03:00,
2013-01-20 00:08:00,66.7,59.3,30.09,NNE,22,3.4,4.7,77,0.00,,---,0.00,VWS V14.00,2013-01-20 05:08:00,
2013-01-20 00:13:00,66.7,59.3,30.09,NNE,22,3.1,3.8,77,0.00,,---,0.00,VWS V14.00,2013-01-20 05:13:00,
2013-01-20 00:18:00,66.7,59.3,30.09,NNE,22,4.3,4.3,77,0.00,,---,0.00,VWS V14.00,2013-01-20 05:18:00,
2013-01-20 00:23:00,66.6,59.1,30.09,NE,45,5.6,6.5,77,0.00,,---,0.00,VWS V14.00,2013-01-20 05:23:00,
2013-01-20 00:29:00,66.6,59.1,30.09,NNE,22,3.1,6.3,77,0.00,,---,0.00,VWS V14.00,2013-01-20 05:29:00,
2013-01-20 00:33:00,66.4,59.3,30.06,ENE,68,5.6,5.6,78,0.00,,---,0.00,VWS V14.00,2013-01-20 05:33:00,
2013-01-20 00:38:00,66.4,59.3,30.06,NE,45,6.3,6.3,78,0.00,,---,0.00,VWS V14.00,2013-01-20 05:38:00,
2013-01-20 00:44:00,66.4,59.0,30.06,ENE,68,6.0,6.0,77,0.00,,---,0.00,VWS V14.00,2013-01-20 05:44:00,
2013-01-20 00:49:00,66.2,59.2,30.06,ENE,68,8.5,8.5,78,0.00,,---,0.00,VWS V14.00,2013-01-20 05:49:00,
2013-01-20 00:54:00,66.0,59.0,30.06,North,0,7.4,7.4,78,0.00,,---,0.00,VWS V14.00,2013-01-20 05:54:00,
2013-01-20 00:59:00,66.0,59.0,30.06,NE,45,5.4,5.8,78,0.00,,---,0.00,VWS V14.00,2013-01-20 05:59:00,
2013-01-20 01:04:00,65.8,58.8,30.06,NNE,22,5.4,5.4,78,0.00,,---,0.00,VWS V14.00,2013-01-20 06:04:00,
2013-01-20 01:09:00,65.8,58.8,30.06,NNE,22,3.4,4.7,78,0.00,,---,0.00,VWS V14.00,2013-01-20 06:09:00,
2013-01-20 01:14:00,65.8,58.8,30.06,NNE,22,2.5,2.7,78,0.00,,---,0.00,VWS V14.00,2013-01-20 06:14:00,
2013-01-20 01:19:00,65.7,58.6,30.06,NNE,22,3.1,5.6,78,0.00,,---,0.00,VWS V14.00,2013-01-20 06:19:00,
2013-01-20 01:24:00,65.7,58.6,30.06,NNE,22,2.9,2.9,78,0.00,,---,0.00,VWS V14.00,2013-01-20 06:24:00,
2013-01-20 01:30:00,65.7,58.3,30.06,NE,45,2.5,2.9,77,0.00,,---,0.00,VWS V14.00,2013-01-20 06:30:00,
2013-01-20 01:35:00,65.5,58.1,30.06,ENE,68,2.2,2.2,77,0.00,,---,0.00,VWS V14.00,2013-01-20 06:35:00,
2013-01-20 01:40:00,65.5,58.5,30.06,NNE,22,2.7,2.7,78,0.00,,---,0.00,VWS V14.00,2013-01-20 06:40:00,
2013-01-20 01:45:00,65.5,58.5,30.06,NNE,22,4.0,4.0,78,0.00,,---,0.00,VWS V14.00,2013-01-20 06:45:00,
2013-01-20 01:50:00,65.3,58.6,30.06,North,0,3.6,3.6,79,0.00,,---,0.00,VWS V14.00,2013-01-20 06:50:00,
2013-01-20 01:55:00,65.1,58.1,30.06,NE,45,5.4,5.4,78,0.00,,---,0.00,VWS V14.00,2013-01-20 06:55:00,
2013-01-20 02:00:00,64.9,58.3,30.06,NNE,22,5.4,5.4,79,0.00,,---,0.00,VWS V14.00,2013-01-20 07:00:00,
2013-01-20 02:06:00,64.8,58.5,30.06,NNW,338,5.4,5.6,80,0.00,,---,0.00,VWS V14.00,2013-01-20 07:06:00,
2013-01-20 02:11:00,64.8,58.5,30.06,NNE,22,4.3,4.3,80,0.00,,---,0.00,VWS V14.00,2013-01-20 07:11:00,
2013-01-20 02:16:00,64.6,58.3,30.06,North,0,4.0,4.0,80,0.00,,---,0.00,VWS V14.00,2013-01-20 07:16:00,
2013-01-20 02:21:00,64.6,58.6,30.06,NE,45,3.6,4.9,81,0.00,,---,0.00,VWS V14.00,2013-01-20 07:21:00,
2013-01-20 02:26:00,64.6,58.6,30.06,North,0,3.8,3.8,81,0.00,,---,0.00,VWS V14.00,2013-01-20 07:26:00,
2013-01-20 02:31:00,64.4,58.5,30.06,NNE,22,2.7,2.7,81,0.00,,---,0.00,VWS V14.00,2013-01-20 07:31:00,
2013-01-20 02:36:00,64.6,58.3,30.06,NE,45,3.6,3.6,80,0.00,,---,0.00,VWS V14.00,2013-01-20 07:36:00,
2013-01-20 02:41:00,64.4,58.5,30.06,North,0,2.0,4.0,81,0.00,,---,0.00,VWS V14.00,2013-01-20 07:41:00,
2013-01-20 02:46:00,64.4,58.5,30.06,North,0,4.3,4.3,81,0.00,,---,0.00,VWS V14.00,2013-01-20 07:46:00,
2013-01-20 02:51:00,64.4,58.5,30.06,NNE,22,2.9,3.1,81,0.00,,---,0.00,VWS V14.00,2013-01-20 07:51:00,
2013-01-20 02:56:00,64.4,58.5,30.06,North,0,3.6,4.9,81,0.00,,---,0.00,VWS V14.00,2013-01-20 07:56:00,
2013-01-20 03:01:00,64.4,58.8,30.06,NE,45,5.6,5.6,82,0.00,,---,0.00,VWS V14.00,2013-01-20 08:01:00,
2013-01-20 03:06:00,64.2,59.0,30.06,ENE,68,3.6,3.6,83,0.00,,---,0.00,VWS V14.00,2013-01-20 08:06:00,
2013-01-20 03:11:00,64.2,59.0,30.06,ENE,68,4.0,4.0,83,0.00,,---,0.00,VWS V14.00,2013-01-20 08:11:00,
2013-01-20 03:16:00,64.2,59.0,30.06,NE,45,4.5,4.7,83,0.00,,---,0.00,VWS V14.00,2013-01-20 08:16:00,
2013-01-20 03:21:00,64.2,59.0,30.06,ENE,68,2.9,3.6,83,0.00,,---,0.00,VWS V14.00,2013-01-20 08:21:00,
2013-01-20 03:26:00,64.2,59.3,30.06,NE,45,4.3,4.3,84,0.00,,---,0.00,VWS V14.00,2013-01-20 08:26:00,
2013-01-20 03:31:00,64.2,59.0,30.06,NE,45,3.4,3.4,83,0.00,,---,0.00,VWS V14.00,2013-01-20 08:31:00,
2013-01-20 03:36:00,64.2,59.0,30.06,NE,45,2.0,2.7,83,0.00,,---,0.00,VWS V14.00,2013-01-20 08:36:00,
2013-01-20 03:41:00,64.0,58.8,30.06,NNE,22,2.9,2.9,83,0.00,,---,0.00,VWS V14.00,2013-01-20 08:41:00,
2013-01-20 03:46:00,64.0,59.1,30.06,ENE,68,2.9,3.8,84,0.00,,---,0.00,VWS V14.00,2013-01-20 08:46:00,
2013-01-20 03:51:00,64.0,58.8,30.06,NE,45,3.1,3.1,83,0.00,,---,0.00,VWS V14.00,2013-01-20 08:51:00,
2013-01-20 03:56:00,64.0,59.1,30.06,ENE,68,5.6,5.6,84,0.00,,---,0.00,VWS V14.00,2013-01-20 08:56:00,
2013-01-20 04:01:00,64.0,59.1,30.06,NNE,22,2.9,2.9,84,0.00,,---,0.00,VWS V14.00,2013-01-20 09:01:00,
2013-01-20 04:06:00,63.9,58.9,30.06,ENE,68,4.0,6.0,84,0.00,,---,0.00,VWS V14.00,2013-01-20 09:06:00,
2013-01-20 04:11:00,63.9,58.6,30.06,NNE,22,3.6,3.6,83,0.00,,---,0.00,VWS V14.00,2013-01-20 09:11:00,
2013-01-20 04:16:00,63.9,58.6,30.06,NNW,338,4.3,4.3,83,0.00,,---,0.00,VWS V14.00,2013-01-20 09:16:00,
2013-01-20 04:22:00,63.7,58.4,30.06,NNE,22,2.0,3.8,83,0.00,,---,0.00,VWS V14.00,2013-01-20 09:22:00,
2013-01-20 04:27:00,63.7,58.4,30.06,NE,45,4.3,4.3,83,0.00,,---,0.00,VWS V14.00,2013-01-20 09:27:00,
2013-01-20 04:32:00,63.7,58.8,30.06,NE,45,4.3,4.3,84,0.00,,---,0.00,VWS V14.00,2013-01-20 09:32:00,
2013-01-20 04:37:00,63.7,58.8,30.06,North,0,2.9,5.4,84,0.00,,---,0.00,VWS V14.00,2013-01-20 09:37:00,
2013-01-20 04:42:00,63.7,59.1,30.06,NE,45,3.8,3.8,85,0.00,,---,0.00,VWS V14.00,2013-01-20 09:42:00,
2013-01-20 04:47:00,63.5,58.9,30.06,NE,45,3.8,3.8,85,0.00,,---,0.00,VWS V14.00,2013-01-20 09:47:00,
2013-01-20 04:53:00,63.5,58.9,30.06,NNE,22,3.8,4.9,85,0.00,,---,0.00,VWS V14.00,2013-01-20 09:53:00,
2013-01-20 04:57:00,63.5,59.2,30.06,NNE,22,5.4,6.5,86,0.00,,---,0.00,VWS V14.00,2013-01-20 09:57:00,
2013-01-20 05:02:00,63.5,58.9,30.06,NE,45,6.0,6.0,85,0.00,,---,0.00,VWS V14.00,2013-01-20 10:02:00,
2013-01-20 05:07:00,63.5,59.2,30.06,ENE,68,5.4,6.0,86,0.00,,---,0.00,VWS V14.00,2013-01-20 10:07:00,
2013-01-20 05:12:00,63.3,59.1,30.06,NE,45,5.8,5.8,86,0.00,,---,0.00,VWS V14.00,2013-01-20 10:12:00,
2013-01-20 05:17:00,63.3,59.1,30.06,NE,45,3.8,4.3,86,0.00,,---,0.00,VWS V14.00,2013-01-20 10:17:00,
2013-01-20 05:22:00,63.3,59.1,30.06,NNE,22,4.3,5.8,86,0.00,,---,0.00,VWS V14.00,2013-01-20 10:22:00,
2013-01-20 05:27:00,63.3,59.1,30.06,NNE,22,5.6,5.6,86,0.00,,---,0.00,VWS V14.00,2013-01-20 10:27:00,
2013-01-20 05:32:00,63.1,58.9,30.06,East,90,3.8,4.9,86,0.00,,---,0.00,VWS V14.00,2013-01-20 10:32:00,
2013-01-20 05:37:00,63.1,58.9,30.06,NNE,22,5.4,6.0,86,0.00,,---,0.00,VWS V14.00,2013-01-20 10:37:00,
2013-01-20 05:42:00,63.0,58.7,30.06,NE,45,6.5,7.8,86,0.00,,---,0.00,VWS V14.00,2013-01-20 10:42:00,
2013-01-20 05:47:00,63.1,58.9,30.06,NNE,22,3.8,4.3,86,0.00,,---,0.00,VWS V14.00,2013-01-20 10:47:00,
2013-01-20 05:52:00,63.0,58.7,30.06,NE,45,2.7,4.3,86,0.00,,---,0.00,VWS V14.00,2013-01-20 10:52:00,
2013-01-20 05:57:00,63.0,58.7,30.06,NNE,22,4.0,4.0,86,0.00,,---,0.00,VWS V14.00,2013-01-20 10:57:00,
2013-01-20 06:02:00,63.0,58.4,30.06,North,0,3.1,4.7,85,0.00,,---,0.00,VWS V14.00,2013-01-20 11:02:00,
2013-01-20 06:07:00,63.0,58.4,30.06,NNW,338,1.6,2.5,85,0.00,,---,0.00,VWS V14.00,2013-01-20 11:07:00,
2013-01-20 06:12:00,63.0,58.4,30.06,North,0,2.7,3.6,85,0.00,,---,0.00,VWS V14.00,2013-01-20 11:12:00,
2013-01-20 06:17:00,63.0,58.4,30.09,North,0,3.4,3.4,85,0.00,,---,0.00,VWS V14.00,2013-01-20 11:17:00,
2013-01-20 06:22:00,63.0,58.4,30.09,North,0,2.7,2.9,85,0.00,,---,0.00,VWS V14.00,2013-01-20 11:22:00,
2013-01-20 06:27:00,63.0,58.4,30.09,NNE,22,2.0,3.6,85,0.00,,---,0.00,VWS V14.00,2013-01-20 11:27:00,
2013-01-20 06:32:00,63.0,58.7,30.09,NNW,338,2.5,3.1,86,0.00,,---,0.00,VWS V14.00,2013-01-20 11:32:00,
2013-01-20 06:37:00,62.8,58.2,30.09,NNE,22,3.6,3.6,85,0.00,,---,0.00,VWS V14.00,2013-01-20 11:37:00,
2013-01-20 06:43:00,62.8,58.2,30.09,NNE,22,4.3,4.3,85,0.00,,---,0.00,VWS V14.00,2013-01-20 11:43:00,
2013-01-20 06:49:00,62.6,58.0,30.09,NNE,22,4.3,4.3,85,0.00,,---,0.00,VWS V14.00,2013-01-20 11:49:00,
2013-01-20 06:54:00,62.6,58.0,30.09,NNE,22,3.4,3.4,85,0.00,,---,0.00,VWS V14.00,2013-01-20 11:54:00,
2013-01-20 06:59:00,62.6,58.4,30.09,NW,315,2.7,3.1,86,0.00,,---,0.00,VWS V14.00,2013-01-20 11:59:00,
2013-01-20 07:04:00,62.6,58.4,30.06,NNW,338,4.0,4.0,86,0.00,,---,0.00,VWS V14.00,2013-01-20 12:04:00,
2013-01-20 07:09:00,62.4,58.5,30.06,NNE,22,3.1,3.4,87,0.00,,---,0.00,VWS V14.00,2013-01-20 12:09:00,
2013-01-20 07:15:00,62.2,58.0,30.06,NNE,22,5.6,5.6,86,0.00,,---,0.00,VWS V14.00,2013-01-20 12:15:00,
2013-01-20 07:19:00,62.2,58.0,30.09,NNE,22,4.0,4.0,86,0.00,,---,0.00,VWS V14.00,2013-01-20 12:19:00,
2013-01-20 07:24:00,62.2,58.0,30.09,NNE,22,2.7,4.9,86,0.00,,---,0.00,VWS V14.00,2013-01-20 12:24:00,
2013-01-20 07:30:00,62.1,57.8,30.09,NNE,22,3.1,3.1,86,0.00,,---,0.00,VWS V14.00,2013-01-20 12:30:00,
2013-01-20 07:35:00,62.1,57.8,30.09,NE,45,5.4,5.4,86,0.00,,---,0.00,VWS V14.00,2013-01-20 12:35:00,
2013-01-20 07:39:00,61.9,58.0,30.09,NNW,338,3.1,3.1,87,0.00,,---,0.00,VWS V14.00,2013-01-20 12:39:00,
2013-01-20 07:45:00,61.9,58.0,30.09,NNW,338,6.3,6.3,87,0.00,,---,0.00,VWS V14.00,2013-01-20 12:45:00,
2013-01-20 07:49:00,61.9,58.0,30.09,NE,45,3.6,5.6,87,0.00,,---,0.00,VWS V14.00,2013-01-20 12:49:00,
2013-01-20 07:54:00,61.9,58.0,30.09,NNE,22,6.0,6.0,87,0.00,,---,0.00,VWS V14.00,2013-01-20 12:54:00,
2013-01-20 08:00:00,62.1,58.2,30.09,NNE,22,5.6,5.6,87,0.00,,---,0.00,VWS V14.00,2013-01-20 13:00:00,
2013-01-20 08:06:00,62.1,58.2,30.09,NNE,22,3.8,5.4,87,0.00,,---,0.00,VWS V14.00,2013-01-20 13:06:00,
2013-01-20 08:11:00,62.1,58.2,30.09,NNE,22,3.4,3.6,87,0.00,,---,0.00,VWS V14.00,2013-01-20 13:11:00,
2013-01-20 08:15:00,62.2,58.3,30.09,ENE,68,3.4,3.4,87,0.00,,---,0.00,VWS V14.00,2013-01-20 13:15:00,
2013-01-20 08:20:00,62.2,58.3,30.09,NE,45,5.8,5.8,87,0.00,,---,0.00,VWS V14.00,2013-01-20 13:20:00,
2013-01-20 08:25:00,62.4,58.5,30.09,ENE,68,4.9,4.9,87,0.00,,---,0.00,VWS V14.00,2013-01-20 13:25:00,
2013-01-20 08:30:00,62.6,58.4,30.09,NNE,22,3.6,3.6,86,0.00,,---,0.00,VWS V14.00,2013-01-20 13:30:00,
2013-01-20 08:36:00,62.8,58.5,30.09,NNE,22,4.9,6.5,86,0.00,,---,0.00,VWS V14.00,2013-01-20 13:36:00,
2013-01-20 08:40:00,62.8,58.2,30.09,NNE,22,4.0,4.3,85,0.00,,---,0.00,VWS V14.00,2013-01-20 13:40:00,
2013-01-20 08:45:00,63.0,58.4,30.12,NNE,22,6.0,6.0,85,0.00,,---,0.00,VWS V14.00,2013-01-20 13:45:00,
2013-01-20 08:51:00,63.1,58.6,30.12,NNE,22,2.9,2.9,85,0.00,,---,0.00,VWS V14.00,2013-01-20 13:51:00,
2013-01-20 08:56:00,63.3,58.7,30.12,NNE,22,3.8,3.8,85,0.00,,---,0.00,VWS V14.00,2013-01-20 13:56:00,
2013-01-20 09:01:00,63.7,59.1,30.09,NNE,22,3.4,4.3,85,0.00,,---,0.00,VWS V14.00,2013-01-20 14:01:00,
2013-01-20 09:06:00,63.9,58.9,30.09,NE,45,3.1,4.9,84,0.00,,---,0.00,VWS V14.00,2013-01-20 14:06:00,
2013-01-20 09:11:00,64.0,59.1,30.09,NE,45,3.8,3.8,84,0.00,,---,0.00,VWS V14.00,2013-01-20 14:11:00,
2013-01-20 09:16:00,64.0,58.8,30.12,NE,45,3.6,4.9,83,0.00,,---,0.00,VWS V14.00,2013-01-20 14:16:00,
2013-01-20 09:23:00,64.2,59.0,30.12,ENE,68,5.8,5.8,83,0.00,,---,0.00,VWS V14.00,2013-01-20 14:23:00,
2013-01-20 09:28:00,64.2,58.6,30.12,NNE,22,6.5,7.6,82,0.00,,---,0.00,VWS V14.00,2013-01-20 14:28:00,
2013-01-20 09:32:00,64.0,58.4,30.12,NE,45,5.4,7.6,82,0.00,,---,0.00,VWS V14.00,2013-01-20 14:32:00,
2013-01-20 09:38:00,64.2,59.0,30.12,ENE,68,6.3,6.3,83,0.00,,---,0.00,VWS V14.00,2013-01-20 14:38:00,
2013-01-20 09:43:00,64.2,58.6,30.12,ENE,68,5.4,6.5,82,0.00,,---,0.00,VWS V14.00,2013-01-20 14:43:00,
2013-01-20 09:48:00,64.4,58.8,30.09,ENE,68,3.6,4.3,82,0.00,,---,0.00,VWS V14.00,2013-01-20 14:48:00,
2013-01-20 09:52:00,64.4,58.8,30.09,NNE,22,5.4,5.4,82,0.00,,---,0.00,VWS V14.00,2013-01-20 14:52:00,
2013-01-20 09:57:00,64.4,58.8,30.09,ENE,68,5.6,5.6,82,0.00,,---,0.00,VWS V14.00,2013-01-20 14:57:00,
2013-01-20 10:02:00,64.4,58.8,30.12,NE,45,4.3,5.4,82,0.00,,---,0.00,VWS V14.00,2013-01-20 15:02:00,
2013-01-20 10:07:00,64.6,59.0,30.12,NE,45,5.6,6.0,82,0.00,,---,0.00,VWS V14.00,2013-01-20 15:07:00,
2013-01-20 10:12:00,64.6,59.0,30.12,ENE,68,5.6,5.6,82,0.00,,---,0.00,VWS V14.00,2013-01-20 15:12:00,
2013-01-20 10:17:00,64.8,59.1,30.12,NNE,22,4.9,4.9,82,0.00,,---,0.00,VWS V14.00,2013-01-20 15:17:00,
2013-01-20 10:22:00,64.8,59.1,30.12,NNE,22,6.0,6.0,82,0.00,,---,0.00,VWS V14.00,2013-01-20 15:22:00,
2013-01-20 10:28:00,64.9,59.3,30.12,ENE,68,5.8,7.6,82,0.00,,---,0.00,VWS V14.00,2013-01-20 15:28:00,
2013-01-20 10:32:00,65.1,59.2,30.12,NE,45,3.8,5.6,81,0.00,,---,0.00,VWS V14.00,2013-01-20 15:32:00,
2013-01-20 10:37:00,65.3,59.3,30.12,NE,45,5.6,5.6,81,0.00,,---,0.00,VWS V14.00,2013-01-20 15:37:00,
2013-01-20 10:43:00,65.7,60.0,30.12,NE,45,6.5,6.5,82,0.00,,---,0.00,VWS V14.00,2013-01-20 15:43:00,
2013-01-20 10:48:00,66.2,59.9,30.09,ENE,68,6.3,6.3,80,0.00,,---,0.00,VWS V14.00,2013-01-20 15:48:00,
2013-01-20 10:53:00,66.7,60.0,30.09,East,90,6.3,6.9,79,0.00,,---,0.00,VWS V14.00,2013-01-20 15:53:00,
2013-01-20 10:58:00,67.3,60.2,30.09,NE,45,5.6,5.6,78,0.00,,---,0.00,VWS V14.00,2013-01-20 15:58:00,
2013-01-20 11:02:00,67.8,60.0,30.09,NNE,22,6.3,6.3,76,0.00,,---,0.00,VWS V14.00,2013-01-20 16:02:00,
2013-01-20 11:08:00,68.2,59.6,30.09,NNE,22,7.2,7.2,74,0.00,,---,0.00,VWS V14.00,2013-01-20 16:08:00,
2013-01-20 11:13:00,68.5,59.9,30.09,NNE,22,8.5,8.5,74,0.00,,---,0.00,VWS V14.00,2013-01-20 16:13:00,
2013-01-20 11:18:00,68.9,60.3,30.09,NE,45,5.6,5.6,74,0.00,,---,0.00,VWS V14.00,2013-01-20 16:18:00,
2013-01-20 11:23:00,69.3,59.5,30.09,ENE,68,6.0,7.4,71,0.00,,---,0.00,VWS V14.00,2013-01-20 16:23:00,
2013-01-20 11:28:00,69.8,60.0,30.09,NE,45,4.9,8.7,71,0.00,,---,0.00,VWS V14.00,2013-01-20 16:28:00,
2013-01-20 11:33:00,70.2,60.3,30.09,NE,45,7.2,7.2,71,0.00,,---,0.00,VWS V14.00,2013-01-20 16:33:00,
2013-01-20 11:38:00,70.5,60.7,30.09,ENE,68,3.8,7.4,71,0.00,,---,0.00,VWS V14.00,2013-01-20 16:38:00,
2013-01-20 11:44:00,70.9,60.6,30.09,NNE,22,6.3,6.9,70,0.00,,---,0.00,VWS V14.00,2013-01-20 16:44:00,
2013-01-20 11:49:00,71.2,60.2,30.09,NE,45,5.8,8.1,68,0.00,,---,0.00,VWS V14.00,2013-01-20 16:49:00,
2013-01-20 11:54:00,71.4,60.3,30.09,NE,45,5.4,5.4,68,0.00,,---,0.00,VWS V14.00,2013-01-20 16:54:00,
2013-01-20 11:59:00,71.6,60.5,30.09,ENE,68,6.0,8.1,68,0.00,,---,0.00,VWS V14.00,2013-01-20 16:59:00,
2013-01-20 12:05:00,72.0,60.4,30.06,NE,45,5.8,7.2,67,0.00,,---,0.00,VWS V14.00,2013-01-20 17:05:00,
2013-01-20 12:10:00,72.7,60.7,30.06,NE,45,5.8,9.6,66,0.00,,---,0.00,VWS V14.00,2013-01-20 17:10:00,
2013-01-20 12:15:00,73.0,60.6,30.06,ENE,68,4.3,4.3,65,0.00,,---,0.00,VWS V14.00,2013-01-20 17:15:00,
2013-01-20 12:21:00,74.5,61.5,30.06,NNE,22,3.6,4.9,64,0.00,,---,0.00,VWS V14.00,2013-01-20 17:21:00,
2013-01-20 12:26:00,74.8,61.4,30.06,NW,315,4.0,4.7,63,0.00,,---,0.00,VWS V14.00,2013-01-20 17:26:00,
2013-01-20 12:31:00,75.2,60.4,30.03,NNE,22,4.3,6.0,60,0.00,,---,0.00,VWS V14.00,2013-01-20 17:31:00,
2013-01-20 12:36:00,75.4,60.5,30.03,NNE,22,6.0,6.0,60,0.00,,---,0.00,VWS V14.00,2013-01-20 17:36:00,
2013-01-20 12:41:00,75.7,60.9,30.03,ENE,68,10.5,10.5,60,0.00,,---,0.00,VWS V14.00,2013-01-20 17:41:00,
2013-01-20 12:46:00,75.7,59.9,30.03,NNE,22,8.7,8.7,58,0.00,,---,0.00,VWS V14.00,2013-01-20 17:46:00,
2013-01-20 12:51:00,74.8,59.6,30.03,NNE,22,4.9,5.6,59,0.00,,---,0.00,VWS V14.00,2013-01-20 17:51:00,
2013-01-20 12:57:00,74.7,59.9,30.03,NE,45,3.6,5.6,60,0.00,,---,0.00,VWS V14.00,2013-01-20 17:57:00,
2013-01-20 13:02:00,74.5,59.7,30.03,ENE,68,4.7,7.2,60,0.00,,---,0.00,VWS V14.00,2013-01-20 18:02:00,
2013-01-20 13:07:00,74.3,60.0,30.03,NNE,22,6.3,6.3,61,0.00,,---,0.00,VWS V14.00,2013-01-20 18:07:00,
2013-01-20 13:12:00,74.8,61.0,30.03,NNE,22,6.3,6.3,62,0.00,,---,0.00,VWS V14.00,2013-01-20 18:12:00,
2013-01-20 13:17:00,75.2,60.4,30.03,ENE,68,4.3,4.7,60,0.00,,---,0.00,VWS V14.00,2013-01-20 18:17:00,
2013-01-20 13:22:00,75.2,60.4,30.03,NNE,22,2.9,5.4,60,0.00,,---,0.00,VWS V14.00,2013-01-20 18:22:00,
2013-01-20 13:27:00,75.7,60.4,30.03,NNE,22,4.9,4.9,59,0.00,,---,0.00,VWS V14.00,2013-01-20 18:27:00,
2013-01-20 13:32:00,76.8,60.9,30.00,NNW,338,3.4,3.4,58,0.00,,---,0.00,VWS V14.00,2013-01-20 18:32:00,
2013-01-20 13:37:00,77.2,60.3,30.00,North,0,3.8,4.9,56,0.00,,---,0.00,VWS V14.00,2013-01-20 18:37:00,
2013-01-20 13:42:00,76.8,60.0,30.00,NNE,22,4.9,4.9,56,0.00,,---,0.00,VWS V14.00,2013-01-20 18:42:00,
2013-01-20 13:46:00,76.8,60.0,30.00,NNE,22,5.4,5.4,56,0.00,,---,0.00,VWS V14.00,2013-01-20 18:46:00,
2013-01-20 13:52:00,76.5,59.6,30.00,NE,45,4.3,4.7,56,0.00,,---,0.00,VWS V14.00,2013-01-20 18:52:00,
2013-01-20 13:57:00,76.3,60.4,30.00,East,90,3.8,3.8,58,0.00,,---,0.00,VWS V14.00,2013-01-20 18:57:00,
2013-01-20 14:02:00,75.6,59.8,30.00,NNE,22,5.4,5.4,58,0.00,,---,0.00,VWS V14.00,2013-01-20 19:02:00,
2013-01-20 14:07:00,75.6,60.2,30.00,NE,45,3.4,3.4,59,0.00,,---,0.00,VWS V14.00,2013-01-20 19:07:00,
2013-01-20 14:12:00,76.1,60.8,30.00,ENE,68,2.9,4.3,59,0.00,,---,0.00,VWS V14.00,2013-01-20 19:12:00,
2013-01-20 14:17:00,76.6,60.3,30.00,East,90,3.1,3.8,57,0.00,,---,0.00,VWS V14.00,2013-01-20 19:17:00,
2013-01-20 14:22:00,76.8,60.5,30.00,ESE,112,3.8,7.4,57,0.00,,---,0.00,VWS V14.00,2013-01-20 19:22:00,
2013-01-20 14:27:00,79.3,62.8,30.00,NE,45,4.0,4.0,57,0.00,,---,0.00,VWS V14.00,2013-01-20 19:27:00,
2013-01-20 14:32:00,79.0,60.9,29.97,North,0,3.1,3.1,54,0.00,,---,0.00,VWS V14.00,2013-01-20 19:32:00,
2013-01-20 14:37:00,79.5,60.4,29.97,ENE,68,2.5,4.3,52,0.00,,---,0.00,VWS V14.00,2013-01-20 19:37:00,
2013-01-20 14:42:00,80.1,59.8,29.97,ESE,112,2.9,3.8,50,0.00,,---,0.00,VWS V14.00,2013-01-20 19:42:00,
2013-01-20 14:47:00,80.8,60.4,29.97,East,90,4.9,4.9,50,0.00,,---,0.00,VWS V14.00,2013-01-20 19:47:00,
2013-01-20 14:52:00,82.0,63.8,29.97,East,90,3.8,6.3,54,0.00,,---,0.00,VWS V14.00,2013-01-20 19:52:00,
2013-01-20 14:57:00,81.7,59.5,29.97,East,90,3.4,3.4,47,0.00,,---,0.00,VWS V14.00,2013-01-20 19:57:00,
2013-01-20 15:02:00,82.0,60.4,29.97,ESE,112,2.2,2.5,48,0.00,,---,0.00,VWS V14.00,2013-01-20 20:02:00,
2013-01-20 15:07:00,84.2,64.1,29.97,East,90,3.1,3.1,51,0.00,,---,0.00,VWS V14.00,2013-01-20 20:07:00,
2013-01-20 15:12:00,84.4,62.0,29.97,ESE,112,4.7,4.7,47,0.00,,---,0.00,VWS V14.00,2013-01-20 20:12:00,
2013-01-20 15:17:00,86.4,64.4,29.97,SSE,158,3.4,3.4,48,0.00,,---,0.00,VWS V14.00,2013-01-20 20:17:00,
2013-01-20 15:22:00,85.8,63.3,29.97,SE,135,3.1,3.4,47,0.00,,---,0.00,VWS V14.00,2013-01-20 20:22:00,
2013-01-20 15:27:00,84.4,61.4,29.97,WSW,248,5.8,5.8,46,0.00,,---,0.00,VWS V14.00,2013-01-20 20:27:00,
2013-01-20 15:32:00,83.5,62.9,29.97,WSW,248,1.1,3.6,50,0.00,,---,0.00,VWS V14.00,2013-01-20 20:32:00,
2013-01-20 15:37:00,84.4,63.2,29.97,SW,225,5.4,5.6,49,0.00,,---,0.00,VWS V14.00,2013-01-20 20:37:00,
2013-01-20 15:42:00,85.8,63.9,29.97,WNW,292,3.4,3.4,48,0.00,,---,0.00,VWS V14.00,2013-01-20 20:42:00,
2013-01-20 15:47:00,86.5,63.9,29.97,SW,225,3.6,3.6,47,0.00,,---,0.00,VWS V14.00,2013-01-20 20:47:00,
2013-01-20 15:52:00,82.2,60.0,29.97,WNW,292,2.0,6.0,47,0.00,,---,0.00,VWS V14.00,2013-01-20 20:52:00,
2013-01-20 15:57:00,80.1,59.8,29.97,NW,315,4.0,4.0,50,0.00,,---,0.00,VWS V14.00,2013-01-20 20:57:00,
2013-01-20 16:02:00,78.6,60.1,29.97,NW,315,2.0,3.1,53,0.00,,---,0.00,VWS V14.00,2013-01-20 21:02:00,
2013-01-20 16:07:00,76.3,60.0,29.97,NNE,22,6.3,6.3,57,0.00,,---,0.00,VWS V14.00,2013-01-20 21:07:00,
2013-01-20 16:13:00,75.6,60.2,29.97,NW,315,5.4,5.6,59,0.00,,---,0.00,VWS V14.00,2013-01-20 21:13:00,
2013-01-20 16:18:00,75.0,60.2,29.97,NW,315,3.1,4.9,60,0.00,,---,0.00,VWS V14.00,2013-01-20 21:18:00,
2013-01-20 16:23:00,74.5,60.6,29.97,NW,315,5.4,5.4,62,0.00,,---,0.00,VWS V14.00,2013-01-20 21:23:00,
2013-01-20 16:28:00,73.9,60.1,29.97,NW,315,4.3,4.3,62,0.00,,---,0.00,VWS V14.00,2013-01-20 21:28:00,
2013-01-20 16:33:00,73.8,60.4,29.97,North,0,2.9,3.4,63,0.00,,---,0.00,VWS V14.00,2013-01-20 21:33:00,
2013-01-20 16:38:00,73.8,60.4,29.97,NNW,338,2.9,2.9,63,0.00,,---,0.00,VWS V14.00,2013-01-20 21:38:00,
2013-01-20 16:44:00,73.4,60.5,29.97,NW,315,3.8,3.8,64,0.00,,---,0.00,VWS V14.00,2013-01-20 21:44:00,
2013-01-20 16:49:00,73.6,60.7,29.97,North,0,2.5,2.5,64,0.00,,---,0.00,VWS V14.00,2013-01-20 21:49:00,
2013-01-20 16:54:00,73.6,60.7,29.97,NNW,338,2.5,2.9,64,0.00,,---,0.00,VWS V14.00,2013-01-20 21:54:00,
2013-01-20 16:59:00,73.4,60.5,29.97,WNW,292,4.0,4.5,64,0.00,,---,0.00,VWS V14.00,2013-01-20 21:59:00,
2013-01-20 17:05:00,73.2,60.8,29.97,NNW,338,1.3,1.3,65,0.00,,---,0.00,VWS V14.00,2013-01-20 22:05:00,
2013-01-20 17:10:00,73.0,60.6,29.97,NNW,338,2.9,3.8,65,0.00,,---,0.00,VWS V14.00,2013-01-20 22:10:00,
2013-01-20 17:15:00,73.0,61.0,29.97,NNW,338,3.1,3.1,66,0.00,,---,0.00,VWS V14.00,2013-01-20 22:15:00,
2013-01-20 17:21:00,72.7,60.7,29.97,NNW,338,2.0,2.0,66,0.00,,---,0.00,VWS V14.00,2013-01-20 22:21:00,
2013-01-20 17:26:00,72.3,60.8,29.97,NW,315,2.0,3.8,67,0.00,,---,0.00,VWS V14.00,2013-01-20 22:26:00,
2013-01-20 17:31:00,72.3,60.8,29.97,West,270,3.6,3.6,67,0.00,,---,0.00,VWS V14.00,2013-01-20 22:31:00,
2013-01-20 17:37:00,72.0,60.4,29.97,WNW,292,0.0,2.5,67,0.00,,---,0.00,VWS V14.00,2013-01-20 22:37:00,
2013-01-20 17:42:00,71.8,60.7,29.97,NNW,338,2.9,2.9,68,0.00,,---,0.00,VWS V14.00,2013-01-20 22:42:00,
2013-01-20 17:47:00,71.4,60.7,29.97,North,0,2.7,2.7,69,0.00,,---,0.00,VWS V14.00,2013-01-20 22:47:00,
2013-01-20 17:53:00,71.2,60.6,29.97,North,0,0.9,1.6,69,0.00,,---,0.00,VWS V14.00,2013-01-20 22:53:00,
2013-01-20 17:58:00,70.9,60.6,29.97,NNW,338,2.0,2.0,70,0.00,,---,0.00,VWS V14.00,2013-01-20 22:58:00,
2013-01-20 18:03:00,70.7,60.5,29.97,NNW,338,3.4,3.4,70,0.00,,---,0.00,VWS V14.00,2013-01-20 23:03:00,
2013-01-20 18:08:00,70.5,60.3,29.97,NNW,338,2.5,2.5,70,0.00,,---,0.00,VWS V14.00,2013-01-20 23:08:00,
2013-01-20 18:13:00,70.2,60.3,29.97,NNW,338,2.5,3.6,71,0.00,,---,0.00,VWS V14.00,2013-01-20 23:13:00,
2013-01-20 18:18:00,69.8,60.0,29.97,North,0,5.6,5.6,71,0.00,,---,0.00,VWS V14.00,2013-01-20 23:18:00,
2013-01-20 18:23:00,69.4,60.0,29.97,NNW,338,4.0,4.0,72,0.00,,---,0.00,VWS V14.00,2013-01-20 23:23:00,
2013-01-20 18:28:00,69.1,60.1,29.97,NNW,338,2.5,2.5,73,0.00,,---,0.00,VWS V14.00,2013-01-20 23:28:00,
2013-01-20 18:34:00,68.7,60.1,30.00,NNE,22,4.0,4.3,74,0.00,,---,0.00,VWS V14.00,2013-01-20 23:34:00,
2013-01-20 18:39:00,68.5,59.9,30.00,North,0,3.8,3.8,74,0.00,,---,0.00,VWS V14.00,2013-01-20 23:39:00,
2013-01-20 18:44:00,68.2,60.0,30.00,North,0,4.9,4.9,75,0.00,,---,0.00,VWS V14.00,2013-01-20 23:44:00,
2013-01-20 18:49:00,68.0,59.8,30.00,NNE,22,3.1,3.8,75,0.00,,---,0.00,VWS V14.00,2013-01-20 23:49:00,
2013-01-20 18:54:00,67.8,60.0,29.97,NNW,338,5.8,5.8,76,0.00,,---,0.00,VWS V14.00,2013-01-20 23:54:00,
2013-01-20 18:59:00,67.6,59.4,29.97,NW,315,4.9,4.9,75,0.00,,---,0.00,VWS V14.00,2013-01-20 23:59:00,
2013-01-20 19:05:00,67.5,58.5,30.00,North,0,2.2,4.9,73,0.00,,---,0.00,VWS V14.00,2013-01-21 00:05:00,
2013-01-20 19:10:00,67.5,58.5,30.00,NNW,338,6.5,6.5,73,0.00,,---,0.00,VWS V14.00,2013-01-21 00:10:00,
2013-01-20 19:15:00,67.3,58.3,30.00,North,0,3.6,4.9,73,0.00,,---,0.00,VWS V14.00,2013-01-21 00:15:00,
2013-01-20 19:20:00,67.1,58.2,30.00,NNE,22,3.1,5.4,73,0.00,,---,0.00,VWS V14.00,2013-01-21 00:20:00,
2013-01-20 19:25:00,67.1,57.8,30.00,North,0,4.0,4.0,72,0.00,,---,0.00,VWS V14.00,2013-01-21 00:25:00,
2013-01-20 19:30:00,67.1,57.4,30.00,NNW,338,1.3,3.1,71,0.00,,---,0.00,VWS V14.00,2013-01-21 00:30:00,
2013-01-20 19:36:00,67.1,57.4,30.00,NNW,338,4.3,4.3,71,0.00,,---,0.00,VWS V14.00,2013-01-21 00:36:00,
2013-01-20 19:41:00,67.1,57.4,30.00,NNW,338,3.4,3.4,71,0.00,,---,0.00,VWS V14.00,2013-01-21 00:41:00,
2013-01-20 19:46:00,67.1,57.4,30.00,North,0,3.6,4.3,71,0.00,,---,0.00,VWS V14.00,2013-01-21 00:46:00,
2013-01-20 19:51:00,67.1,57.4,30.00,NNE,22,4.3,4.3,71,0.00,,---,0.00,VWS V14.00,2013-01-21 00:51:00,
2013-01-20 19:56:00,67.1,57.4,30.00,NNE,22,1.6,2.5,71,0.00,,---,0.00,VWS V14.00,2013-01-21 00:56:00,
2013-01-20 20:01:00,67.1,57.4,30.00,NNW,338,4.3,4.3,71,0.00,,---,0.00,VWS V14.00,2013-01-21 01:01:00,
2013-01-20 20:06:00,67.1,57.4,30.00,NNW,338,3.8,3.8,71,0.00,,---,0.00,VWS V14.00,2013-01-21 01:06:00,
2013-01-20 20:11:00,66.9,56.8,30.00,NW,315,2.7,4.0,70,0.00,,---,0.00,VWS V14.00,2013-01-21 01:11:00,
2013-01-20 20:16:00,66.9,56.8,30.00,NNE,22,2.9,4.0,70,0.00,,---,0.00,VWS V14.00,2013-01-21 01:16:00,
2013-01-20 20:21:00,66.7,56.7,30.00,NNW,338,3.6,3.6,70,0.00,,---,0.00,VWS V14.00,2013-01-21 01:21:00,
2013-01-20 20:26:00,66.7,56.7,30.00,NNE,22,1.6,3.1,70,0.00,,---,0.00,VWS V14.00,2013-01-21 01:26:00,
2013-01-20 20:31:00,66.7,56.3,30.00,NNW,338,2.9,4.0,69,0.00,,---,0.00,VWS V14.00,2013-01-21 01:31:00,
2013-01-20 20:36:00,66.7,56.3,30.00,NNW,338,1.6,3.8,69,0.00,,---,0.00,VWS V14.00,2013-01-21 01:36:00,
2013-01-20 20:41:00,66.7,55.8,30.00,NE,45,3.4,4.3,68,0.00,,---,0.00,VWS V14.00,2013-01-21 01:41:00,
2013-01-20 20:46:00,66.7,55.5,30.00,NNW,338,4.3,4.3,67,0.00,,---,0.00,VWS V14.00,2013-01-21 01:46:00,
2013-01-20 20:51:00,66.7,55.0,30.00,NNE,22,5.4,5.4,66,0.00,,---,0.00,VWS V14.00,2013-01-21 01:51:00,
2013-01-20 20:56:00,66.7,55.0,30.00,NNW,338,2.7,2.7,66,0.00,,---,0.00,VWS V14.00,2013-01-21 01:56:00,
2013-01-20 21:01:00,66.7,55.0,30.00,NNE,22,3.4,6.3,66,0.00,,---,0.00,VWS V14.00,2013-01-21 02:01:00,
2013-01-20 21:06:00,66.6,54.9,30.00,NNW,338,2.2,2.9,66,0.00,,---,0.00,VWS V14.00,2013-01-21 02:06:00,
2013-01-20 21:11:00,66.6,54.9,30.00,NNW,338,1.6,2.5,66,0.00,,---,0.00,VWS V14.00,2013-01-21 02:11:00,
2013-01-20 21:16:00,66.4,54.7,30.03,NNW,338,3.4,3.4,66,0.00,,---,0.00,VWS V14.00,2013-01-21 02:16:00,
2013-01-20 21:21:00,66.2,54.5,30.03,NNW,338,3.1,3.1,66,0.00,,---,0.00,VWS V14.00,2013-01-21 02:21:00,
2013-01-20 21:26:00,66.2,54.5,30.03,NNE,22,1.6,3.8,66,0.00,,---,0.00,VWS V14.00,2013-01-21 02:26:00,
2013-01-20 21:31:00,66.2,54.5,30.03,NW,315,2.2,2.2,66,0.00,,---,0.00,VWS V14.00,2013-01-21 02:31:00,
2013-01-20 21:36:00,66.0,54.3,30.03,North,0,2.9,2.9,66,0.00,,---,0.00,VWS V14.00,2013-01-21 02:36:00,
2013-01-20 21:41:00,66.0,54.3,30.03,NNW,338,3.8,3.8,66,0.00,,---,0.00,VWS V14.00,2013-01-21 02:41:00,
2013-01-20 21:46:00,66.0,54.3,30.03,NE,45,1.3,3.1,66,0.00,,---,0.00,VWS V14.00,2013-01-21 02:46:00,
2013-01-20 21:51:00,66.2,54.1,30.03,NNW,338,3.1,3.1,65,0.00,,---,0.00,VWS V14.00,2013-01-21 02:51:00,
2013-01-20 21:56:00,66.2,54.5,30.03,NNW,338,1.1,2.5,66,0.00,,---,0.00,VWS V14.00,2013-01-21 02:56:00,
2013-01-20 22:01:00,66.2,54.5,30.03,NNE,22,2.0,3.4,66,0.00,,---,0.00,VWS V14.00,2013-01-21 03:01:00,
2013-01-20 22:06:00,66.2,54.5,30.03,NNE,22,2.7,3.1,66,0.00,,---,0.00,VWS V14.00,2013-01-21 03:06:00,
2013-01-20 22:11:00,66.2,54.1,30.03,NNE,22,2.7,4.3,65,0.00,,---,0.00,VWS V14.00,2013-01-21 03:11:00,
2013-01-20 22:16:00,66.4,53.8,30.03,NNW,338,3.8,3.8,64,0.00,,---,0.00,VWS V14.00,2013-01-21 03:16:00,
2013-01-20 22:21:00,66.4,54.3,30.03,NNE,22,3.6,3.6,65,0.00,,---,0.00,VWS V14.00,2013-01-21 03:21:00,
2013-01-20 22:26:00,66.4,53.8,30.03,NE,45,3.1,4.7,64,0.00,,---,0.00,VWS V14.00,2013-01-21 03:26:00,
2013-01-20 22:31:00,66.4,53.8,30.03,NNE,22,5.4,5.4,64,0.00,,---,0.00,VWS V14.00,2013-01-21 03:31:00,
2013-01-20 22:36:00,66.4,53.8,30.03,NNE,22,3.4,5.8,64,0.00,,---,0.00,VWS V14.00,2013-01-21 03:36:00,
2013-01-20 22:42:00,66.4,53.8,30.03,North,0,2.5,3.6,64,0.00,,---,0.00,VWS V14.00,2013-01-21 03:42:00,
2013-01-20 22:48:00,66.2,53.7,30.03,ENE,68,2.0,3.8,64,0.00,,---,0.00,VWS V14.00,2013-01-21 03:48:00,
2013-01-20 22:53:00,66.2,53.7,30.03,NE,45,5.6,5.6,64,0.00,,---,0.00,VWS V14.00,2013-01-21 03:53:00,
2013-01-20 22:58:00,66.2,53.7,30.03,NNE,22,3.4,5.4,64,0.00,,---,0.00,VWS V14.00,2013-01-21 03:58:00,
2013-01-20 23:03:00,66.4,53.8,30.03,NNE,22,4.0,4.5,64,0.00,,---,0.00,VWS V14.00,2013-01-21 04:03:00,
2013-01-20 23:08:00,66.2,54.1,30.03,NNE,22,2.7,2.7,65,0.00,,---,0.00,VWS V14.00,2013-01-21 04:08:00,
2013-01-20 23:13:00,66.2,54.1,30.03,NNW,338,2.2,3.6,65,0.00,,---,0.00,VWS V14.00,2013-01-21 04:13:00,
2013-01-20 23:18:00,66.4,54.3,30.03,NNE,22,1.6,3.1,65,0.00,,---,0.00,VWS V14.00,2013-01-21 04:18:00,
2013-01-20 23:23:00,66.4,54.3,30.03,NNE,22,2.0,2.9,65,0.00,,---,0.00,VWS V14.00,2013-01-21 04:23:00,
2013-01-20 23:28:00,66.4,54.3,30.03,NNE,22,2.5,2.5,65,0.00,,---,0.00,VWS V14.00,2013-01-21 04:28:00,
2013-01-20 23:34:00,66.4,54.3,30.03,NNE,22,1.3,1.3,65,0.00,,---,0.00,VWS V14.00,2013-01-21 04:34:00,
2013-01-20 23:39:00,66.2,54.5,30.03,North,0,1.6,1.6,66,0.00,,---,0.00,VWS V14.00,2013-01-21 04:39:00,
2013-01-20 23:44:00,66.4,54.7,30.03,North,0,1.3,2.7,66,0.00,,---,0.00,VWS V14.00,2013-01-21 04:44:00,
2013-01-20 23:49:00,66.4,54.7,30.03,NNW,338,1.6,1.6,66,0.00,,---,0.00,VWS V14.00,2013-01-21 04:49:00,
2013-01-20 23:54:00,66.4,54.7,30.03,NNW,338,1.3,1.6,66,0.00,,---,0.00,VWS V14.00,2013-01-21 04:54:00,